Location: Albany
(35.0170°S, 117.8920°E)
Time: 21:48:09
(UTC+08:00)

A-11 Canister half - Pass Details

Date: 28 January 2021
Orbit: 1525 x 1684 km, 47.3° (Epoch: 03 March)

Event Time Altitude Azimuth Distance (km) Brightness Sun altitude
Rises 06:28:59 0° 239° (WSW) 4,912 11.2 11.8°
Reaches altitude 10° 06:32:19 10° 234° (SW) 3,905 10.8 12.5°
Maximum altitude 06:42:03 54° 158° (SSE) 1,897 10.1 14.4°
Drops below altitude 10° 06:51:24 10° 81° (E) 3,766 12.7 16.3°
Sets 06:54:33 0° 76° (ENE) 4,728 12.8 17.0°
